Mullan Pass, ID

10:09 PM PDT on October 23, 2019 (GMT -0700)
Mullan Pass

Weather History for KMLP - August, 2019

Change the Weather History Date:

Tuesday, August 6, 2019

  Actual Average (WUND) Record (WUND)
Temperature  
Mean Temperature 72 °F -  
Max Temperature 80 °F - - (-1)
Min Temperature 64 °F - - (-1)
Cooling Degree Days 6    
Growing Degree Days 22 (Base 50)    
Moisture  
Dew Point 34 °F    
Average Humidity 26    
Maximum Humidity 32    
Minimum Humidity 21    
Precipitation  
Precipitation 0.00 in - - ()
Sea Level Pressure  
Sea Level Pressure 29.87 in    
Wind  
Wind Speed 3 mph (NW)    
Max Wind Speed 8 mph    
Max Gust Speed -    
Visibility 10 miles    
Events      
Averages and records for this station are not official NWS values.
T = Trace of Precipitation, MM = Missing Value Source: NWS Daily Summary

Daily Weather History Graph

Daily Weather History Graph

Search for Another Location

Airport or City:

Astronomy

Aug. 06, 2019 Rise Set
Actual Time 5:26 AM PDT 8:09 PM PDT
Civil Twilight 4:51 AM PDT 8:44 PM PDT
Nautical Twilight 4:07 AM PDT 9:28 PM PDT
Astronomical Twilight 3:14 AM PDT 10:20 PM PDT
Moon 12:23 PM PDT (8/6) 11:28 PM PDT (8/6)
Length of Visible Light 15h 52m
Length of Day
14h 42m
Waxing Crescent, 40% of the Moon is Illuminated
Aug 6
Waxing Crescent
Aug 7
First Quarter
Aug 15
Full
Aug 23
Last Quarter
Aug 30
New

Hourly Weather History & Observations

Time (PDT) Temp. Dew Point Humidity Pressure Visibility Wind Dir Wind Speed Gust Speed Precip Events Conditions
12:53 AM 66.0 °F 30.9 °F 27% 29.88 in 10.0 mi North 3.5 mph - N/A   Mostly Cloudy
1:53 AM 66.0 °F 32.0 °F 28% 29.88 in 10.0 mi NNW 3.5 mph - N/A   Clear
2:53 AM 64.9 °F 33.1 °F 31% 29.88 in 10.0 mi Calm Calm - N/A   Clear
3:53 AM 66.0 °F 33.1 °F 29% 29.88 in 10.0 mi Calm Calm - N/A   Clear
4:53 AM 66.0 °F 33.1 °F 29% 29.88 in 10.0 mi North 3.5 mph - N/A   Clear
5:53 AM 66.0 °F 33.1 °F 29% 29.88 in 10.0 mi Calm Calm - N/A   Clear
6:53 AM 66.9 °F 36.0 °F 32% 29.90 in 10.0 mi Calm Calm - N/A   Clear
7:53 AM 68.0 °F 36.0 °F 31% 29.92 in 10.0 mi Calm Calm - N/A   Clear
8:53 AM 70.0 °F 37.0 °F 30% 29.91 in 10.0 mi Variable 3.5 mph - N/A   Clear
9:53 AM 71.1 °F 36.0 °F 28% 29.91 in 10.0 mi South 5.8 mph - N/A   Clear
11:53 AM 75.0 °F 37.9 °F 26% 29.89 in 10.0 mi West 4.6 mph - N/A   Clear
12:53 PM 77.0 °F 37.9 °F 24% 29.86 in 10.0 mi NNW 5.8 mph - N/A   Clear
1:53 PM 79.0 °F 36.0 °F 21% 29.85 in 10.0 mi Variable 3.5 mph - N/A   Clear
2:53 PM 79.0 °F 37.0 °F 22% 29.84 in 10.0 mi Variable 3.5 mph - N/A   Clear
3:53 PM 79.0 °F 37.9 °F 23% 29.82 in 10.0 mi Variable 5.8 mph - N/A   Clear
4:53 PM 78.1 °F 37.9 °F 24% 29.81 in 10.0 mi North - - N/A   Clear
5:53 PM 75.9 °F 36.0 °F 23% 29.81 in 10.0 mi Variable 6.9 mph - N/A   Clear
6:53 PM 72.0 °F 33.1 °F 24% 29.82 in 9.0 mi WNW 8.1 mph - N/A   Clear
7:53 PM 69.1 °F 33.1 °F 26% 29.82 in 10.0 mi NW 3.5 mph - N/A   Clear
8:53 PM 68.0 °F 30.0 °F 24% 29.83 in 10.0 mi NW 3.5 mph - N/A   Clear
9:53 PM 68.0 °F 30.0 °F 24% 29.83 in 10.0 mi Calm Calm - N/A   Clear
10:53 PM 68.0 °F 28.9 °F 23% 30.16 in 10.0 mi Calm Calm - N/A   Clear
11:53 PM 68.0 °F 30.9 °F 25% 29.81 in 10.0 mi Calm Calm - N/A   Clear